[[{"header":{"parameterUnit":"m.s-1","parameterCategory":1,"la1":30.2991,"la2":30.254,"lo1":-89.0895,"lo2":-89.0444,"dy":0.0017,"dx":0.0017,"nx":28,"ny":28,"refTime":"2024-06-09T03:00:00:Z","depth":0,"parameterNumber":2,"parameterNumberName":"U-component_of_WINDS"},"data":[0,0,0,0,0,0,0,0,0,0,0,0,0,0,0,0,0,0,0,0,0,0,0,0,0,0,0,0,0,0,0,0,0,0,0,0,0,0,0,0,0,0,0,0,0,0,0,0,0,0,0,0,0,0,0,0,0,0,-0.0883,-0.0883,0,-0.0831,-0.083,-0.0829,-0.0783,-0.0783,-0.0782,-0.0782,-0.073,-0.0729,-0.0728,0,0,0,0,0,0,0,0,0,0,0,0,0,-0.0948,-0.0947,-0.0884,-0.0883,-0.0882,-0.0831,-0.083,-0.0829,-0.0784,-0.0783,-0.0782,-0.0782,-0.073,-0.0729,-0.0728,0,0,0,0,0,0,0,0,0,0,0,0,0,-0.091,-0.0946,-0.0884,-0.0853,-0.085,-0.0831,-0.083,-0.0829,-0.0784,-0.0783,-0.0782,-0.0781,-0.0731,-0.0729,-0.0728,-0.0736,0,0,-0.0724,-0.0723,0,0,0,0,0,0,0,0,-0.0912,-0.0908,-0.0858,-0.0855,-0.0851,-0.0813,-0.0834,-0.0798,-0.0784,-0.0809,-0.0782,-0.0781,-0.0758,-0.0755,-0.0747,-0.0733,-0.0731,-0.0724,-0.0723,-0.0723,-0.0722,0,0,0,0,0,0,0,-0.0915,-0.091,-0.0863,-0.0858,-0.0853,-0.0843,-0.0837,-0.0827,-0.0789,-0.0807,-0.0803,-0.0797,-0.0756,-0.0748,-0.0745,-0.073,-0.0724,-0.0723,-0.0722,-0.0721,-0.0722,-0.0723,0,0,0,0,0,0,-0.0922,-0.0912,-0.0864,-0.0861,-0.088,-0.0843,-0.0835,-0.0826,-0.0789,-0.0782,-0.0798,-0.0795,-0.0751,-0.0747,-0.0743,-0.075,-0.0723,-0.0721,-0.0721,-0.0721,-0.0722,-0.0723,0,0,0,0,0,0,-0.0923,-0.0918,-0.0866,-0.0886,-0.0878,-0.0842,-0.0832,-0.0825,-0.0817,-0.0782,-0.0776,-0.0796,-0.075,-0.0745,-0.0738,-0.0748,-0.0721,-0.0719,-0.072,-0.0722,-0.0723,-0.0764,0,0,0,0,0,0,-0.0925,-0.0919,-0.0921,-0.0886,-0.0877,-0.0862,-0.0833,-0.0825,-0.0815,-0.0811,-0.0779,-0.0773,-0.0749,-0.074,-0.0737,-0.0745,-0.0718,-0.0719,-0.0721,-0.0722,-0.0762,-0.0767,-0.0771,0,0,0,0,0,-0.0928,-0.0935,-0.0921,-0.0915,-0.0879,-0.0862,-0.0857,-0.0829,-0.0815,-0.0818,-0.0796,-0.0774,-0.0747,-0.074,-0.0736,-0.0744,-0.0719,-0.072,-0.0722,-0.076,-0.0766,-0.0771,0,0,0,0,0,0,-0.0972,-0.093,-0.0914,-0.091,-0.089,-0.0854,-0.0856,-0.0836,-0.082,-0.0817,-0.0783,-0.0777,-0.0774,-0.0758,-0.0751,-0.075,-0.073,-0.0731,-0.076,-0.0766,-0.077,-0.0774,-0.0717,0,0,0,0,0,-0.0981,-0.097,-0.0934,-0.0934,-0.0925,-0.0893,-0.0884,-0.0864,-0.0842,-0.0834,-0.0811,-0.0792,-0.0779,-0.0772,-0.0758,-0.076,-0.0753,-0.0763,-0.0768,-0.0772,-0.0773,-0.0774,-0.0778,-0.0729,-0.0729,-0.0729,0,0,-0.1,-0.0976,-0.0971,-0.0942,-0.0925,-0.0915,-0.0886,-0.0877,-0.087,-0.0833,-0.0825,-0.0808,-0.0784,-0.0782,-0.0779,-0.0769,-0.0785,-0.0774,-0.0778,-0.0777,-0.0776,-0.0781,-0.0785,-0.073,-0.073,-0.073,0,0,-0.103,-0.101,-0.1008,-0.0991,-0.0964,-0.0943,-0.0943,-0.091,-0.0897,-0.0889,-0.0861,-0.0853,-0.0831,-0.0816,-0.0805,-0.083,-0.081,-0.0827,-0.085,-0.0851,-0.0855,-0.0858,-0.0868,-0.0872,-0.0828,-0.0828,-0.0828,0,-0.1058,-0.1041,-0.101,-0.1003,-0.0991,-0.0957,-0.0955,-0.0941,-0.0911,-0.0905,-0.0893,-0.0866,-0.0847,-0.0841,-0.0847,-0.084,-0.0839,-0.083,-0.0857,-0.086,-0.0863,-0.0871,-0.0875,-0.083,-0.083,-0.083,-0.083,0,-0.1076,-0.1066,-0.1067,-0.1039,-0.1028,-0.1024,-0.0993,-0.0985,-0.0967,-0.0947,-0.0939,-0.0916,-0.0897,-0.0894,-0.0876,-0.0886,-0.088,-0.0863,-0.0842,-0.087,-0.0878,-0.0881,-0.0834,-0.0833,-0.0832,-0.0832,0,0,-0.1132,-0.1087,-0.1088,-0.1075,-0.1044,-0.1035,-0.103,-0.1011,-0.1006,-0.0987,-0.0983,-0.0966,-0.095,-0.0938,-0.0918,-0.0919,-0.0941,-0.0901,-0.09,-0.091,-0.0951,-0.0964,-0.0968,-0.0927,-0.0928,-0.0928,-0.0953,0,-0.1157,-0.1144,-0.1117,-0.1113,-0.1103,-0.1071,-0.1067,-0.1047,-0.1029,-0.1019,-0.0999,-0.0987,-0.0967,-0.096,-0.0959,-0.0938,-0.0948,-0.0936,-0.0923,-0.0923,-0.093,-0.0972,-0.0986,-0.1011,-0.0956,-0.0956,-0.0957,0,-0.1184,-0.1167,-0.1162,-0.1132,-0.1127,-0.1123,-0.1104,-0.1094,-0.1072,-0.1059,-0.1046,-0.1024,-0.1017,-0.0998,-0.099,-0.0982,-0.0975,-0.0964,-0.0965,-0.0962,-0.0942,-0.0972,-0.1018,-0.1022,-0.0961,-0.0961,-0.096,0,-0.1226,-0.1202,-0.1196,-0.1186,-0.115,-0.1148,-0.1134,-0.1111,-0.1102,-0.1085,-0.1079,-0.1063,-0.1054,-0.1042,-0.1016,-0.1005,-0.1011,-0.099,-0.1001,-0.1001,-0.1003,-0.1004,-0.1049,-0.0999,-0.0999,-0.0999,-0.0999,0,-0.1257,-0.1256,-0.1214,-0.1211,-0.1209,-0.1177,-0.1176,-0.1159,-0.1139,-0.1132,-0.1104,-0.1098,-0.1064,-0.1055,-0.1035,-0.1032,-0.1028,-0.1018,-0.1012,-0.102,-0.1022,-0.1015,-0.1013,-0.1,-0.0999,-0.0999,-0.0999,0,-0.1304,-0.1276,-0.1267,-0.1234,-0.1226,-0.1226,-0.1198,-0.1194,-0.1174,-0.1166,-0.1162,-0.1131,-0.1119,-0.1092,-0.1073,-0.1059,-0.1061,-0.1051,-0.1068,-0.1065,-0.1078,-0.1077,-0.1121,-0.1126,-0.1072,-0.1073,-0.1073,0,-0.1326,-0.1324,-0.129,-0.1283,-0.1269,-0.1258,-0.1248,-0.1218,-0.1209,-0.1184,-0.1184,-0.1169,-0.1156,-0.1139,-0.1115,-0.1101,-0.109,-0.1107,-0.1088,-0.1096,-0.1091,-0.1092,-0.1092,-0.1111,-0.1112,-0.1113,-0.1113,0,-0.1367,-0.1354,-0.134,-0.1322,-0.1311,-0.1295,-0.1279,-0.1275,-0.124,-0.1232,-0.1219,-0.1209,-0.1189,-0.1176,-0.1158,-0.1144,-0.1123,-0.1119,-0.1121,-0.1129,-0.1139,-0.1134,-0.108,-0.1118,-0.1118,-0.1117,-0.1117,-0.1117,-0.1402,-0.1399,-0.1375,-0.1361,-0.1345,-0.133,-0.1325,-0.1304,-0.1292,-0.1273,-0.1256,-0.1245,-0.1224,-0.1198,-0.1185,-0.1177,-0.1166,-0.1169,-0.1169,-0.1171,-0.1174,-0.1141,-0.1173,-0.1173,-0.1173,-0.1173,-0.1173,0,-0.1443,-0.1426,-0.1413,-0.139,-0.138,-0.136,-0.1341,-0.1334,-0.1324,-0.1305,-0.1293,-0.1279,-0.1265,-0.1241,-0.1226,-0.1224,-0.1214,-0.1221,-0.1221,-0.1218,-0.1184,-0.1184,-0.1229,-0.1229,-0.1229,-0.1229,-0.1229,-0.1229,-0.1463,-0.1457,-0.144,-0.1427,-0.141,-0.1398,-0.1388,-0.1375,-0.136,-0.1345,-0.1333,-0.1317,-0.1297,-0.128,-0.1268,-0.1261,-0.1257,-0.1267,-0.1257,-0.1226,-0.1221,-0.1216,-0.1215,-0.1266,-0.1266,-0.1292,-0.1292,-0.1292]},{"header":{"parameterUnit":"m.s-1","parameterCategory":1,"la1":30.2991,"la2":30.254,"lo1":-89.0895,"lo2":-89.0444,"dy":0.0017,"dx":0.0017,"nx":28,"ny":28,"refTime":"2024-06-09T03:00:00:Z","depth":0,"parameterNumber":3,"parameterNumberName":"V-component_of_WINDS"},"data":[0,0,0,0,0,0,0,0,0,0,0,0,0,0,0,0,0,0,0,0,0,0,0,0,0,0,0,0,0,0,0,0,0,0,0,0,0,0,0,0,0,0,0,0,0,0,0,0,0,0,0,0,0,0,0,0,0,0,3.6583,3.6583,0,3.6624,3.6624,3.6625,3.664,3.664,3.664,3.6639,3.6678,3.6679,3.668,0,0,0,0,0,0,0,0,0,0,0,0,0,3.6515,3.6516,3.6583,3.6583,3.6584,3.6624,3.6624,3.6625,3.664,3.664,3.6639,3.6639,3.6677,3.6678,3.668,0,0,0,0,0,0,0,0,0,0,0,0,0,3.6549,3.6517,3.6583,3.6596,3.6598,3.6624,3.6624,3.6625,3.664,3.664,3.6639,3.6639,3.6677,3.6678,3.668,3.6694,0,0,3.6685,3.6686,0,0,0,0,0,0,0,0,3.6547,3.6551,3.6594,3.6595,3.6597,3.6627,3.6614,3.6648,3.664,3.6624,3.6639,3.6639,3.666,3.6663,3.6671,3.6696,3.6698,3.6685,3.6686,3.6687,3.6688,0,0,0,0,0,0,0,3.6545,3.655,3.6599,3.6594,3.6597,3.6599,3.6604,3.6621,3.6642,3.6625,3.6626,3.6631,3.6661,3.667,3.6672,3.6698,3.6685,3.6687,3.6688,3.6688,3.6736,3.6737,0,0,0,0,0,0,3.6541,3.6548,3.6598,3.66,3.6571,3.6601,3.6606,3.6617,3.6642,3.6646,3.6631,3.6632,3.6667,3.667,3.6674,3.6692,3.6687,3.6689,3.669,3.6736,3.6736,3.6737,0,0,0,0,0,0,3.6539,3.6545,3.6596,3.6574,3.6581,3.6602,3.6615,3.6618,3.6627,3.6647,3.6651,3.6636,3.6667,3.6671,3.6689,3.6694,3.6689,3.6691,3.6736,3.6736,3.6737,3.6729,0,0,0,0,0,0,3.6537,3.6544,3.655,3.6574,3.6582,3.6612,3.6615,3.6619,3.663,3.6631,3.6653,3.6656,3.6667,3.6687,3.6691,3.6696,3.6692,3.6736,3.6736,3.6737,3.6729,3.6729,3.6729,0,0,0,0,0,3.6535,3.6546,3.6551,3.6557,3.6591,3.6612,3.6616,3.663,3.663,3.6636,3.665,3.6655,3.6693,3.6688,3.6693,3.6699,3.6735,3.6736,3.6736,3.6729,3.6729,3.6729,0,0,0,0,0,0,3.652,3.6549,3.6555,3.6574,3.6591,3.6615,3.6622,3.663,3.6645,3.6645,3.6661,3.6665,3.6682,3.6692,3.6687,3.6714,3.6714,3.6716,3.6707,3.6707,3.6707,3.6704,3.6694,0,0,0,0,0,3.652,3.6536,3.656,3.6574,3.6583,3.6601,3.6611,3.662,3.6637,3.6644,3.6658,3.6674,3.6689,3.6699,3.6714,3.6731,3.6735,3.6737,3.6737,3.6737,3.6738,3.6748,3.6749,3.6739,3.6739,3.6739,0,0,3.6518,3.6536,3.6545,3.6572,3.6586,3.6601,3.6607,3.6623,3.6634,3.6646,3.6664,3.6675,3.6693,3.6711,3.6719,3.672,3.6742,3.6738,3.6738,3.6739,3.6748,3.6749,3.675,3.6739,3.6739,3.6739,0,0,3.6523,3.6538,3.6553,3.6567,3.6588,3.6601,3.6604,3.6627,3.6635,3.6654,3.6663,3.6676,3.6702,3.6715,3.6725,3.6736,3.6741,3.674,3.6741,3.675,3.6751,3.6751,3.6755,3.6756,3.6741,3.6741,3.6741,0,3.6518,3.6543,3.6559,3.6575,3.6586,3.6599,3.6614,3.6626,3.665,3.6658,3.6658,3.6692,3.6705,3.6726,3.6729,3.6736,3.674,3.6738,3.675,3.675,3.6751,3.6755,3.6756,3.6741,3.6741,3.6741,3.6741,0,3.6535,3.6552,3.6561,3.6586,3.6599,3.6614,3.6631,3.6642,3.665,3.6662,3.6681,3.6697,3.6716,3.6722,3.673,3.6744,3.6744,3.6747,3.6747,3.6752,3.6756,3.6757,3.674,3.6741,3.6741,3.6741,0,0,3.6532,3.6567,3.657,3.6581,3.6606,3.6619,3.6634,3.6654,3.6663,3.668,3.6692,3.6715,3.6718,3.6729,3.6738,3.6746,3.6754,3.6749,3.6749,3.6749,3.6771,3.6768,3.677,3.6758,3.6759,3.6759,3.6769,0,3.654,3.657,3.6585,3.6607,3.6623,3.6636,3.6649,3.6665,3.6677,3.6691,3.6704,3.6719,3.6722,3.6729,3.6738,3.6751,3.6758,3.6751,3.6769,3.677,3.6764,3.6772,3.6769,3.6778,3.6771,3.6771,3.6771,0,3.6554,3.6572,3.6596,3.662,3.6627,3.6639,3.6659,3.6672,3.6691,3.6699,3.6712,3.6721,3.6737,3.6737,3.6758,3.6753,3.6761,3.6769,3.6769,3.6771,3.6771,3.6773,3.6781,3.6782,3.6774,3.6773,3.6773,0,3.6549,3.6579,3.6598,3.6608,3.6636,3.6644,3.6655,3.6674,3.6685,3.6702,3.6709,3.6727,3.6736,3.675,3.6763,3.6762,3.6784,3.6784,3.679,3.679,3.6794,3.6793,3.6802,3.6799,3.6799,3.6799,3.6799,0,3.6557,3.6571,3.6597,3.6608,3.6624,3.6641,3.6656,3.6669,3.6685,3.6699,3.6711,3.6723,3.674,3.6754,3.6765,3.6781,3.6785,3.6792,3.6794,3.679,3.679,3.6796,3.6796,3.68,3.68,3.68,3.6799,0,3.6554,3.6572,3.6593,3.6618,3.6625,3.6636,3.6657,3.6668,3.6681,3.6698,3.6702,3.6722,3.6739,3.6754,3.6777,3.6784,3.68,3.6804,3.6794,3.6796,3.6801,3.68,3.6814,3.6817,3.6812,3.6812,3.6812,0,3.6558,3.6569,3.6596,3.6607,3.6619,3.6636,3.6647,3.6664,3.6676,3.6698,3.6706,3.6725,3.6741,3.6767,3.6783,3.68,3.6803,3.6807,3.6806,3.6802,3.6803,3.6803,3.6804,3.6807,3.6807,3.6807,3.6807,0,3.6562,3.6571,3.6588,3.6609,3.6623,3.6639,3.6656,3.6664,3.6684,3.6696,3.6715,3.6727,3.675,3.6768,3.6787,3.6798,3.6806,3.6807,3.681,3.6806,3.68,3.6803,3.6794,3.6807,3.6807,3.6807,3.6807,3.6807,3.6563,3.6574,3.6595,3.6614,3.6629,3.6644,3.6656,3.6671,3.6687,3.6709,3.6717,3.6736,3.6754,3.6781,3.6792,3.6806,3.6807,3.6811,3.6811,3.6812,3.6811,3.6798,3.681,3.681,3.681,3.681,3.681,0,3.6568,3.6583,3.66,3.6624,3.6639,3.6646,3.6665,3.6677,3.6693,3.671,3.6726,3.6747,3.6765,3.6782,3.68,3.6808,3.6812,3.6812,3.6812,3.6814,3.6809,3.6805,3.6809,3.6809,3.6809,3.6809,3.6809,3.6809,3.6573,3.6592,3.6603,3.663,3.6644,3.6663,3.6674,3.6688,3.6701,3.6725,3.674,3.6752,3.6769,3.6788,3.6805,3.6809,3.6815,3.6815,3.682,3.6815,3.6815,3.6814,3.6811,3.6816,3.6816,3.6824,3.6824,3.6824]}]]